EXS35AJ EGBB-LGSK

Flight info

Callsign EXS35AJ
Flight time N/A
Altitude 37000
Route N0437F370 DCT COWLY Q70 BIG UL9 KONAN UL607 REMBA DCT LIRSU DCT ULNOK DCT VIBOM DCT NOMBO DCT RIDAR DCT RADIZ DCT NEMEK DCT ETOBI DCT MEDUX UM867 KOGAT DCT ERANA UL737 TSL UL617 IBIDI IBIDI1C
Aircraft A21N/M-SDE2E3FGHIRWXY/LB1

Departure

Time 2026-05-06 13:03
Airport Birmingham Airport (EGBB)

Arrival

Time N/A
Airport Skiathos Island National Airport (LGSK)
Time Latitude Longitude Altitude Speed Heading
2026-05-06 12:49 52.44866 -1.73459 329 ft 0 kts 146°
2026-05-06 12:54 52.44870 -1.73464 324 ft 3 kts 147°
2026-05-06 12:54 52.44893 -1.73479 326 ft 4 kts 180°
2026-05-06 12:55 52.44915 -1.73467 326 ft 4 kts 225°
2026-05-06 12:55 52.44924 -1.73449 326 ft 1 kts 237°
2026-05-06 12:55 52.44925 -1.73447 326 ft 0 kts 237°
2026-05-06 12:57 52.44925 -1.73448 326 ft 1 kts 237°
2026-05-06 12:58 52.44915 -1.73472 326 ft 4 kts 237°
2026-05-06 12:58 52.44900 -1.73527 327 ft 6 kts 257°
2026-05-06 12:58 52.44880 -1.73602 326 ft 8 kts 234°
2026-05-06 12:58 52.44838 -1.73677 326 ft 9 kts 208°
2026-05-06 12:59 52.44770 -1.73711 328 ft 11 kts 197°
2026-05-06 12:59 52.44733 -1.73745 326 ft 7 kts 232°
2026-05-06 12:59 52.44721 -1.73771 330 ft 0 kts 236°
2026-05-06 13:01 52.44720 -1.73773 330 ft 1 kts 236°
2026-05-06 13:01 52.44708 -1.73802 330 ft 5 kts 236°
2026-05-06 13:01 52.44680 -1.73872 331 ft 9 kts 236°
2026-05-06 13:02 52.44655 -1.73968 330 ft 10 kts 288°
2026-05-06 13:02 52.44713 -1.74054 331 ft 13 kts 326°
2026-05-06 13:02 52.44907 -1.74268 331 ft 68 kts 326°
2026-05-06 13:02 52.45483 -1.74907 326 ft 130 kts 327°
2026-05-06 13:03 52.46310 -1.75836 600 ft 145 kts 329°
2026-05-06 13:03 52.47140 -1.76815 1138 ft 149 kts 326°
2026-05-06 13:03 52.48009 -1.77785 1726 ft 158 kts 331°
2026-05-06 13:03 52.48992 -1.78841 2165 ft 179 kts 329°
2026-05-06 13:04 52.50121 -1.79887 2765 ft 194 kts 343°
2026-05-06 13:04 52.51511 -1.80115 3279 ft 213 kts
2026-05-06 13:04 52.52894 -1.79149 4021 ft 222 kts 39°
2026-05-06 13:04 52.53816 -1.77115 4945 ft 227 kts 68°
2026-05-06 13:05 52.54008 -1.74519 5819 ft 236 kts 94°
2026-05-06 13:05 52.53671 -1.71837 6674 ft 243 kts 100°
2026-05-06 13:05 52.53269 -1.69119 7489 ft 248 kts 101°
2026-05-06 13:05 52.52578 -1.66482 8245 ft 260 kts 124°
2026-05-06 13:06 52.51301 -1.64215 8726 ft 281 kts 135°
2026-05-06 13:06 52.49837 -1.61958 9339 ft 294 kts 136°
2026-05-06 13:06 52.48334 -1.59624 10169 ft 300 kts 136°
2026-05-06 13:06 52.46826 -1.57244 10997 ft 303 kts 136°
2026-05-06 13:07 52.45173 -1.55047 11699 ft 312 kts 148°
2026-05-06 13:07 52.43278 -1.53182 12075 ft 332 kts 150°
2026-05-06 13:07 52.41235 -1.51242 12613 ft 345 kts 150°
2026-05-06 13:07 52.39121 -1.49210 13394 ft 350 kts 150°
2026-05-06 13:08 52.37036 -1.47187 14149 ft 355 kts 151°
2026-05-06 13:08 52.34761 -1.45479 14877 ft 357 kts 162°
2026-05-06 13:08 52.32435 -1.44214 15647 ft 358 kts 163°
2026-05-06 13:08 52.30070 -1.42701 16370 ft 364 kts 152°
2026-05-06 13:09 52.28061 -1.40243 17070 ft 369 kts 139°
2026-05-06 13:09 52.26199 -1.37331 17783 ft 373 kts 136°
2026-05-06 13:09 52.24502 -1.34110 18464 ft 377 kts 128°
2026-05-06 13:09 52.22957 -1.30627 19070 ft 381 kts 126°
2026-05-06 13:10 52.21345 -1.27177 19671 ft 383 kts 134°
2026-05-06 13:10 52.19433 -1.24130 20262 ft 386 kts 139°
2026-05-06 13:10 52.18123 -1.22165 20646 ft 388 kts 139°
2026-05-06 13:10 52.16124 -1.19185 21257 ft 390 kts 139°
2026-05-06 13:11 52.14095 -1.16138 21851 ft 393 kts 139°
2026-05-06 13:11 52.12104 -1.13141 22416 ft 396 kts 139°
2026-05-06 13:11 52.10049 -1.10041 22988 ft 399 kts 139°
2026-05-06 13:11 52.08005 -1.06959 23545 ft 403 kts 139°
2026-05-06 13:12 52.05970 -1.03891 24011 ft 405 kts 139°
2026-05-06 13:12 52.03892 -1.00765 24482 ft 408 kts 139°
2026-05-06 13:12 52.01809 -0.97629 24944 ft 410 kts 139°
2026-05-06 13:12 51.99708 -0.94476 25424 ft 412 kts 139°
2026-05-06 13:13 51.97596 -0.91312 25867 ft 415 kts 139°
2026-05-06 13:13 51.95467 -0.88120 26301 ft 417 kts 139°
2026-05-06 13:13 51.93326 -0.84923 26751 ft 420 kts 139°
2026-05-06 13:13 51.91174 -0.81710 27158 ft 423 kts 139°
2026-05-06 13:14 51.89002 -0.78470 27566 ft 425 kts 139°
2026-05-06 13:14 51.86821 -0.75217 27946 ft 428 kts 139°
2026-05-06 13:14 51.84619 -0.71943 28319 ft 431 kts 139°
2026-05-06 13:14 51.82406 -0.68659 28719 ft 433 kts 139°
2026-05-06 13:15 51.80274 -0.65494 29104 ft 434 kts 139°
2026-05-06 13:15 51.78043 -0.62191 29469 ft 436 kts 139°
2026-05-06 13:15 51.75794 -0.58870 29794 ft 439 kts 139°
2026-05-06 13:15 51.73532 -0.55534 30169 ft 442 kts 139°
2026-05-06 13:16 51.71266 -0.52185 30523 ft 442 kts 138°
2026-05-06 13:16 51.68992 -0.48831 30836 ft 444 kts 139°
2026-05-06 13:16 51.66708 -0.45471 31068 ft 446 kts 139°
2026-05-06 13:16 51.64405 -0.42087 31326 ft 449 kts 139°